Weather History for Staples, MN

Change the Weather History Date:

Tuesday, May 6, 2014

  Actual Average Record
Temperature  
Mean Temperature 50 °F -  
Max Temperature 60 °F 60 °F 84 °F (2000)
Min Temperature 41 °F 38 °F 33 °F (2013)
Degree Days  
Heating Degree Days 14    
Moisture  
Dew Point 34 °F    
Average Humidity 53    
Maximum Humidity 81    
Minimum Humidity 31    
Precipitation  
Precipitation 0.00 in - - ()
Sea Level Pressure  
Sea Level Pressure 29.88 in    
Wind  
Wind Speed 7 mph (ESE)    
Max Wind Speed 16 mph    
Max Gust Speed 22 mph    
Visibility 10 miles    
Events Rain , Thunderstorm    
Averages and records for this station are not official NWS values.
T = Trace of Precipitation, MM = Missing Value Source: NWS Daily Summary

Daily Weather History Graph

Daily Weather History Graph

Search for Another Location

Airport:

Trip Planner

Search our weather history database for the weather conditions in past years. The results will help you decide how hot, cold, wet, or windy it might be!

Date:

Astronomy

May. 06, 2014 Rise Set
Actual Time 5:57 AM CDT 8:34 PM CDT
Civil Twilight 5:23 AM CDT 9:09 PM CDT
Nautical Twilight 4:40 AM CDT 9:52 PM CDT
Astronomical Twilight 3:51 AM CDT 10:42 PM CDT
Moon 12:18 PM CDT (5/6) 1:50 AM CDT (5/6)
Length of Visible Light 15h 45m
Length of Day
14h 37m
Waxing Crescent, 46% of the Moon is Illuminated
May 6
Waxing Crescent
May 6
First Quarter
May 14
Full
May 21
Last Quarter
May 28
New

Hourly Weather History & Observations

Time (CDT) Temp. Windchill Dew Point Humidity Pressure Visibility Wind Dir Wind Speed Gust Speed Precip Events Conditions
12:14 AM 46.4 °F 43.5 °F 33.8 °F 62% 29.97 in 10.0 mi East 5.8 mph - N/A   Clear
12:33 AM 46.4 °F 42.9 °F 33.8 °F 62% 29.97 in 10.0 mi East 6.9 mph - N/A   Clear
12:53 AM 46.4 °F 42.9 °F 33.8 °F 62% 29.97 in 10.0 mi East 6.9 mph - N/A   Scattered Clouds
1:14 AM 44.6 °F 40.7 °F 32.0 °F 61% 29.96 in 10.0 mi East 6.9 mph - N/A   Scattered Clouds
1:33 AM 44.6 °F 41.4 °F 33.8 °F 66% 29.96 in 10.0 mi East 5.8 mph - N/A   Clear
1:53 AM 44.6 °F 40.2 °F 33.8 °F 66% 29.96 in 10.0 mi East 8.1 mph - N/A   Clear
2:13 AM 42.8 °F 38.6 °F 35.6 °F 76% 29.95 in 10.0 mi East 6.9 mph - N/A   Scattered Clouds
2:33 AM 42.8 °F 38.6 °F 35.6 °F 76% 29.95 in 10.0 mi East 6.9 mph - N/A   Clear
2:53 AM 42.8 °F 39.3 °F 35.6 °F 76% 29.95 in 10.0 mi East 5.8 mph - N/A   Clear
6:53 AM 41.0 °F 39.0 °F 35.6 °F 81% 29.95 in 10.0 mi SE 3.5 mph - N/A   Clear
7:13 AM 41.0 °F - 35.6 °F 81% 29.95 in 10.0 mi Calm Calm - N/A   Clear
7:33 AM 41.0 °F - 35.6 °F 81% 29.97 in 10.0 mi Calm Calm - N/A   Scattered Clouds
7:53 AM 42.8 °F - 35.6 °F 76% 29.99 in 10.0 mi Calm Calm - N/A   Scattered Clouds
8:13 AM 42.8 °F 41.1 °F 35.6 °F 76% 29.98 in 10.0 mi ESE 3.5 mph - N/A   Scattered Clouds
9:13 AM 46.4 °F 44.3 °F 37.4 °F 71% 29.95 in 10.0 mi SE 4.6 mph - N/A   Clear
9:33 AM 48.2 °F - 35.6 °F 62% 29.92 in 10.0 mi SE 9.2 mph - N/A   Clear
9:53 AM 48.2 °F - 35.6 °F 62% 29.92 in 10.0 mi SE 8.1 mph - N/A   Clear
10:13 AM 48.2 °F - 35.6 °F 62% 29.91 in 10.0 mi SE 9.2 mph - N/A   Scattered Clouds
10:33 AM 51.8 °F - 33.8 °F 50% 29.92 in 10.0 mi SE 9.2 mph - N/A   Scattered Clouds
10:53 AM 51.8 °F - 33.8 °F 50% 29.92 in 10.0 mi SE 11.5 mph 17.3 mph N/A   Clear
11:13 AM 53.6 °F - 32.0 °F 44% 29.92 in 10.0 mi SSE 15.0 mph 19.6 mph N/A   Clear
11:33 AM 53.6 °F - 32.0 °F 44% 29.92 in 10.0 mi SE 11.5 mph - N/A   Clear
11:53 AM 55.4 °F - 32.0 °F 41% 29.92 in 10.0 mi SE 9.2 mph - N/A   Clear
12:13 PM 55.4 °F - 32.0 °F 41% 29.90 in 10.0 mi ESE 11.5 mph 18.4 mph N/A   Clear
12:33 PM 55.4 °F - 30.2 °F 38% 29.88 in 10.0 mi ESE 12.7 mph 21.9 mph N/A   Clear
12:53 PM 57.2 °F - 33.8 °F 41% 29.88 in 10.0 mi SE 10.4 mph 18.4 mph N/A   Clear
1:14 PM 57.2 °F - 33.8 °F 41% 29.87 in 10.0 mi ESE 12.7 mph 19.6 mph N/A   Clear
1:33 PM 59.0 °F - 32.0 °F 36% 29.86 in 10.0 mi ESE 13.8 mph 20.7 mph N/A   Clear
1:53 PM 60.8 °F - 32.0 °F 34% 29.86 in 10.0 mi ESE 11.5 mph 20.7 mph N/A   Clear
2:14 PM 60.8 °F - 30.2 °F 31% 29.85 in 10.0 mi SE 16.1 mph 19.6 mph N/A   Scattered Clouds
2:33 PM 60.8 °F - 30.2 °F 31% 29.84 in 10.0 mi ESE 10.4 mph 20.7 mph N/A   Mostly Cloudy
2:54 PM 60.8 °F - 30.2 °F 31% 29.83 in 10.0 mi SE 10.4 mph 19.6 mph N/A   Overcast
3:13 PM 60.8 °F - 30.2 °F 31% 29.83 in 10.0 mi SE 12.7 mph 18.4 mph N/A   Overcast
3:53 PM 60.8 °F - 30.2 °F 31% 29.82 in 10.0 mi SE 10.4 mph 17.3 mph N/A   Overcast
4:13 PM 60.8 °F - 32.0 °F 34% 29.83 in 10.0 mi ESE 9.2 mph 19.6 mph N/A   Overcast
4:33 PM 60.8 °F - 32.0 °F 34% 29.83 in 10.0 mi SE 8.1 mph - N/A   Overcast
4:53 PM 60.8 °F - 32.0 °F 34% 29.84 in 10.0 mi SE 9.2 mph - N/A   Overcast
5:14 PM 60.8 °F - 32.0 °F 34% 29.82 in 10.0 mi SE 8.1 mph - N/A   Overcast
5:33 PM 60.8 °F - 33.8 °F 36% 29.81 in 10.0 mi ESE 5.8 mph - N/A   Overcast
5:53 PM 60.8 °F - 33.8 °F 36% 29.81 in 10.0 mi ESE 3.5 mph - N/A   Overcast
6:14 PM 60.8 °F - 33.8 °F 36% 29.82 in 10.0 mi ESE 4.6 mph - N/A   Overcast
6:33 PM 59.0 °F - 33.8 °F 39% 29.80 in 10.0 mi East 9.2 mph - N/A   Overcast
6:53 PM 59.0 °F - 33.8 °F 39% 29.82 in 10.0 mi ESE 6.9 mph - N/A   Overcast
7:14 PM 59.0 °F - 35.6 °F 42% 29.82 in 10.0 mi East 5.8 mph - N/A   Overcast
7:33 PM 57.2 °F - 35.6 °F 44% 29.82 in 10.0 mi East 10.4 mph - N/A   Overcast
7:53 PM 57.2 °F - 35.6 °F 44% 29.82 in 10.0 mi ENE 9.2 mph - N/A   Overcast
8:14 PM 55.4 °F - 37.4 °F 51% 29.82 in 10.0 mi East 9.2 mph 18.4 mph N/A   Overcast
8:33 PM 55.4 °F - 37.4 °F 51% 29.82 in 10.0 mi East 6.9 mph - N/A   Overcast
8:53 PM 53.6 °F - 37.4 °F 54% 29.83 in 10.0 mi East 6.9 mph - N/A   Overcast
9:14 PM 53.6 °F - 37.4 °F 54% 29.84 in 10.0 mi ESE 8.1 mph - N/A   Overcast
9:33 PM 53.6 °F - 35.6 °F 51% 29.85 in 10.0 mi ESE 6.9 mph - N/A   Overcast
9:53 PM 51.8 °F - 35.6 °F 54% 29.85 in 10.0 mi East 8.1 mph - N/A   Overcast
10:14 PM 51.8 °F - 37.4 °F 58% 29.84 in 10.0 mi East 6.9 mph - N/A   Light Drizzle
10:33 PM 50.0 °F - 37.4 °F 62% 29.84 in 10.0 mi East 5.8 mph - N/A   Overcast
10:53 PM 48.2 °F - 39.2 °F 71% 29.85 in 10.0 mi ENE 5.8 mph - N/A Thunderstorm Overcast
11:14 PM 48.2 °F - 37.4 °F 66% 29.84 in 10.0 mi East 8.1 mph - N/A Rain Light Rain
11:33 PM 46.4 °F 43.5 °F 39.2 °F 76% 29.86 in 10.0 mi East 5.8 mph - N/A Rain Light Rain
11:53 PM 46.4 °F 44.3 °F 39.2 °F 76% 29.85 in 10.0 mi ENE 4.6 mph - N/A Rain Light Rain